Regional Weather Roundup
Issued by NWS Albany, NY

Home | Current Version | Previous Version | Text Only | Print | Product List | Glossary On
Versions: 1 2 3 4 5 6 7 8 9 10 11 12 13 14 15 16 17 18 19 20 21 22 23 24 25 26 27
000
ASUS41 KALY 191610
RWRALY

NEW YORK STATE HOURLY WEATHER ROUNDUP
NATIONAL WEATHER SERVICE ALBANY NY
1200 PM EDT SAT AUG 19 2017

NOTE: "FAIR" INDICATES FEW OR NO CLOUDS BELOW 12,000 FEET WITH NO
SIGNIFICANT WEATHER AND/OR NO OBSTRUCTIONS TO VISIBILITY.

NYZ032-033-038>043-046>054-057>066-NYZ062>081-082-084-191700-
EAST


CITY           SKY/WX    TMP DP  RH WIND       PRES   REMARKS
ALBANY         PTSUNNY   81  64  56 W8        29.84S
GLENS FALLS    PTSUNNY   79  64  60 VRB7      29.82S
POUGHKEEPSIE   MOSUNNY   80  66  62 MISG      29.84F
NEWBURGH       MOSUNNY   81  68  65 W7        29.88S
MONTGOMERY     MOSUNNY   82  64  54 VRB5      29.86S
WHITE PLAINS   MOSUNNY   82  63  52 NW7       29.87S
ISLIP          PTSUNNY   84  70  62 SW7       29.85S
NEW YORK CITY  PTSUNNY   84  66  54 NW3       29.85S
CENTRAL PARK   SUNNY     83  65  54 CALM      29.89S
$$

NYZ005>009-017-018-044>046-055-056-191700-
CENTRAL


CITY           SKY/WX    TMP DP  RH WIND       PRES   REMARKS
FULTON         CLOUDY    72  61  68 W9        29.87R
SYRACUSE       PTSUNNY   77  61  57 W14       29.85F
ROME           CLOUDY    75  62  64 W13G21    29.87R
ELMIRA         CLOUDY    76  62  62 W6        29.90R
BINGHAMTON     CLOUDY    70  61  73 W8        29.92S
MONTICELLO     PTSUNNY   75  63  66 NW6       29.93R
$$

NYZ026>034-041>043-087-191700-
NORTH


CITY           SKY/WX    TMP DP  RH WIND       PRES   REMARKS
WATERTOWN      PTSUNNY   71  65  81 SW13      29.83R
FORT DRUM      NOT AVBL
OGDENSBURG     FAIR      76  64  67 SW10      29.78S
MASSENA        CLOUDY    77  64  64 SW10      29.78S
SARANAC LAKE   CLOUDY    69  65  86 W8        29.83S
PLATTSBURGH    PTSUNNY   76  68  76 SE12      29.76F
$$

NYZ001>004-010>016-019>021-085-191700-
WEST


CITY           SKY/WX    TMP DP  RH WIND       PRES   REMARKS
NIAGARA FALLS  PTSUNNY   76  59  55 SW13      29.86S
BUFFALO        PTSUNNY   74  60  61 SW13G25   29.88R
DUNKIRK        PTSUNNY   73  64  73 SW12      29.90R
JAMESTOWN      PTSUNNY   70  59  68 SW10      29.94R
WELLSVILLE     CLOUDY    74  60  61 W9        29.95S
ROCHESTER      PTSUNNY   75  58  55 W9        29.87S
PENN YAN       PTSUNNY   74  59  59 VRB5      29.90S
$$

             KEY
       WCI = WIND CHILL INDEX
       VSB = VISIBILITY
       HX  = HEAT INDEX
$$




USA.gov is the U.S. government's official web portal to all federal, state and local government web resources and services.